SKB2204 KFLL-KATL

Flight info

Callsign SKB2204
Flight time 1h 24m
Altitude 34000
Route FRSBE2 STYMY Q77 MJAMS/N0454F350 Q77 SHRKS/N0456F340 LAIRI LARZZ JJEDI4
Aircraft A321/M-SDE3FGHIRWY/LB1

Departure

Time 2026-05-04 06:16
Airport Fort Lauderdale Hollywood International Airport (KFLL)

Arrival

Time 2026-05-04 07:40
Airport Hartsfield Jackson Atlanta International Airport (KATL)
Time Latitude Longitude Altitude Speed Heading
2026-05-04 05:26 26.06924 -80.14141 16 ft 0 kts 298°
2026-05-04 06:07 26.06921 -80.14136 16 ft 4 kts 296°
2026-05-04 06:07 26.06912 -80.14108 16 ft 4 kts 273°
2026-05-04 06:07 26.06916 -80.14085 16 ft 4 kts 206°
2026-05-04 06:07 26.06926 -80.14082 16 ft 1 kts 180°
2026-05-04 06:08 26.06928 -80.14082 16 ft 0 kts 180°
2026-05-04 06:11 26.06816 -80.14168 16 ft 15 kts 269°
2026-05-04 06:11 26.06817 -80.14287 16 ft 16 kts 270°
2026-05-04 06:13 26.06768 -80.15045 16 ft 15 kts 270°
2026-05-04 06:14 26.06696 -80.15786 16 ft 12 kts 256°
2026-05-04 06:14 26.06626 -80.15818 17 ft 11 kts 166°
2026-05-04 06:15 26.06588 -80.15761 19 ft 9 kts 90°
2026-05-04 06:15 26.06588 -80.15754 19 ft 0 kts 88°
2026-05-04 06:15 26.06589 -80.15642 23 ft 42 kts 90°
2026-05-04 06:15 26.06587 -80.15037 19 ft 112 kts 90°
2026-05-04 06:16 26.06588 -80.13967 87 ft 162 kts 89°
2026-05-04 06:16 26.06587 -80.12694 717 ft 161 kts 88°
2026-05-04 06:16 26.06603 -80.11865 1196 ft 161 kts 87°
2026-05-04 06:16 26.06844 -80.10665 1850 ft 159 kts 63°
2026-05-04 06:17 26.07455 -80.09580 2104 ft 176 kts 56°
2026-05-04 06:17 26.08165 -80.08372 2254 ft 197 kts 57°
2026-05-04 06:17 26.09119 -80.07197 2394 ft 215 kts 33°
2026-05-04 06:17 26.10538 -80.06502 2515 ft 233 kts 19°
2026-05-04 06:18 26.12152 -80.05863 2630 ft 259 kts 19°
2026-05-04 06:18 26.13902 -80.05171 3041 ft 272 kts 17°
2026-05-04 06:18 26.15778 -80.04868 3621 ft 275 kts 352°
2026-05-04 06:20 26.24818 -80.14099 8288 ft 275 kts 289°
2026-05-04 06:20 26.25571 -80.16069 8894 ft 279 kts 296°
2026-05-04 06:21 26.29849 -80.23616 10740 ft 310 kts 299°
2026-05-04 06:21 26.31039 -80.25717 10872 ft 329 kts 299°
2026-05-04 06:22 26.32288 -80.27916 11215 ft 339 kts 299°
2026-05-04 06:22 26.33558 -80.30147 11746 ft 343 kts 299°
2026-05-04 06:25 26.53094 -80.57962 18835 ft 399 kts 337°
2026-05-04 06:25 26.55774 -80.58801 19287 ft 402 kts 337°
2026-05-04 06:26 26.58476 -80.59646 19729 ft 405 kts 337°
2026-05-04 06:26 26.61196 -80.60502 20166 ft 408 kts 337°
2026-05-04 06:26 26.63940 -80.61370 20602 ft 411 kts 337°
2026-05-04 06:26 26.66699 -80.62247 21012 ft 414 kts 336°
2026-05-04 06:27 26.77897 -80.65828 22538 ft 425 kts 336°
2026-05-04 06:28 26.80753 -80.66736 22892 ft 428 kts 336°
2026-05-04 06:28 26.83624 -80.67650 23233 ft 430 kts 336°
2026-05-04 06:28 26.86519 -80.68573 23571 ft 433 kts 336°
2026-05-04 06:28 26.89433 -80.69502 23910 ft 435 kts 336°
2026-05-04 06:29 26.92347 -80.70444 24239 ft 436 kts 335°
2026-05-04 06:29 26.95243 -80.71468 24561 ft 437 kts 333°
2026-05-04 06:29 26.98129 -80.72564 24882 ft 438 kts 333°
2026-05-04 06:29 27.01009 -80.73694 25216 ft 439 kts 332°
2026-05-04 06:30 27.03901 -80.74832 25548 ft 441 kts 332°
2026-05-04 06:30 27.06763 -80.75948 25873 ft 442 kts 332°
2026-05-04 06:30 27.09689 -80.77074 26197 ft 444 kts 333°
2026-05-04 06:30 27.12625 -80.78192 26512 ft 446 kts 333°
2026-05-04 06:31 27.15575 -80.79306 26823 ft 448 kts 333°
2026-05-04 06:31 27.18542 -80.80423 27141 ft 449 kts 333°
2026-05-04 06:31 27.21512 -80.81542 27446 ft 451 kts 333°
2026-05-04 06:31 27.24489 -80.82665 27753 ft 452 kts 333°
2026-05-04 06:32 27.27477 -80.83798 28045 ft 453 kts 332°
2026-05-04 06:33 27.48360 -80.92253 29925 ft 459 kts 330°
2026-05-04 06:34 27.51362 -80.93502 30223 ft 460 kts 330°
2026-05-04 06:34 27.54362 -80.94734 30578 ft 459 kts 330°
2026-05-04 06:34 27.57370 -80.95963 30886 ft 459 kts 330°
2026-05-04 06:34 27.60373 -80.97192 31174 ft 459 kts 330°
2026-05-04 06:35 27.63372 -80.98427 31459 ft 458 kts 330°
2026-05-04 06:36 27.84312 -81.07088 33351 ft 457 kts 328°
2026-05-04 06:37 27.87269 -81.08318 33578 ft 457 kts 328°
2026-05-04 06:37 27.90258 -81.09563 33824 ft 457 kts 328°
2026-05-04 06:37 27.93244 -81.10808 34022 ft 458 kts 328°
2026-05-04 06:37 27.96231 -81.12053 34079 ft 456 kts 328°
2026-05-04 06:38 28.02166 -81.14511 34081 ft 453 kts 328°
2026-05-04 06:40 28.24756 -81.26040 34107 ft 444 kts 323°
2026-05-04 06:40 28.30395 -81.28926 34109 ft 444 kts 323°
2026-05-04 06:41 28.36034 -81.31812 34110 ft 444 kts 323°
2026-05-04 06:41 28.41672 -81.34695 34112 ft 444 kts 323°
2026-05-04 06:42 28.47322 -81.37575 34113 ft 445 kts 324°
2026-05-04 06:44 28.69864 -81.49135 34125 ft 445 kts 324°
2026-05-04 06:44 28.75506 -81.52038 34128 ft 445 kts 324°
2026-05-04 06:45 28.81144 -81.54945 34131 ft 445 kts 324°
2026-05-04 06:45 28.86787 -81.57852 34135 ft 445 kts 324°
2026-05-04 06:46 28.92548 -81.60550 34140 ft 458 kts 334°
2026-05-04 06:46 28.95737 -81.61216 34139 ft 474 kts 344°
2026-05-04 06:46 28.99041 -81.61510 34144 ft 476 kts 345°
2026-05-04 06:48 29.25395 -81.63902 34140 ft 476 kts 345°
2026-05-04 06:50 29.51720 -81.66326 35127 ft 474 kts 345°
2026-05-04 06:51 29.58297 -81.66942 35129 ft 474 kts 345°
2026-05-04 06:51 29.64874 -81.67553 35129 ft 474 kts 345°
2026-05-04 06:52 29.71401 -81.68153 35127 ft 474 kts 345°
2026-05-04 06:52 29.77973 -81.68749 35131 ft 472 kts 345°
2026-05-04 06:53 29.84534 -81.69357 35135 ft 473 kts 345°
2026-05-04 06:53 29.91089 -81.69968 35148 ft 473 kts 345°
2026-05-04 06:54 29.97653 -81.70580 35152 ft 473 kts 345°
2026-05-04 06:54 30.04217 -81.71184 35158 ft 472 kts 346°
2026-05-04 06:55 30.10729 -81.71791 35166 ft 472 kts 345°
2026-05-04 06:55 30.17280 -81.72408 35175 ft 472 kts 345°
2026-05-04 06:57 30.43486 -81.74863 35178 ft 472 kts 346°
2026-05-04 06:58 30.50029 -81.75472 35171 ft 471 kts 346°
2026-05-04 06:58 30.53290 -81.75781 34815 ft 470 kts 346°
2026-05-04 06:58 30.56556 -81.76088 34321 ft 469 kts 346°
2026-05-04 06:59 30.59791 -81.76458 34115 ft 464 kts 341°
2026-05-04 06:59 30.62906 -81.77316 34163 ft 455 kts 332°
2026-05-04 06:59 30.68557 -81.80243 34155 ft 445 kts 324°
2026-05-04 07:01 30.89846 -81.92563 34156 ft 447 kts 324°
2026-05-04 07:02 30.95411 -81.95799 34156 ft 447 kts 324°
2026-05-04 07:02 31.00981 -81.99034 34158 ft 447 kts 325°
2026-05-04 07:03 31.06559 -82.02277 34165 ft 445 kts 326°
2026-05-04 07:03 31.12067 -82.05483 34165 ft 441 kts 326°
2026-05-04 07:04 31.17510 -82.08669 34164 ft 440 kts 326°
2026-05-04 07:04 31.22996 -82.11886 34165 ft 441 kts 326°
2026-05-04 07:05 31.28488 -82.15102 34165 ft 441 kts 326°
2026-05-04 07:05 31.33982 -82.18313 34165 ft 442 kts 326°
2026-05-04 07:06 31.42222 -82.23156 34164 ft 442 kts 326°
2026-05-04 07:07 31.47729 -82.26403 34165 ft 443 kts 326°
2026-05-04 07:09 31.69765 -82.39422 34165 ft 444 kts 327°
2026-05-04 07:09 31.75252 -82.42660 34164 ft 444 kts 327°
2026-05-04 07:10 31.80772 -82.45926 34156 ft 443 kts 327°
2026-05-04 07:12 32.01656 -82.60590 34157 ft 430 kts 314°
2026-05-04 07:12 32.06170 -82.65201 34155 ft 428 kts 314°
2026-05-04 07:13 32.10641 -82.69765 34156 ft 426 kts 314°
2026-05-04 07:13 32.15124 -82.74336 34155 ft 425 kts 314°
2026-05-04 07:14 32.26237 -82.85707 33821 ft 421 kts 315°
2026-05-04 07:15 32.28438 -82.87971 32939 ft 418 kts 315°
2026-05-04 07:15 32.30617 -82.90212 32198 ft 411 kts 315°
2026-05-04 07:15 32.32744 -82.92395 31771 ft 398 kts 315°
2026-05-04 07:15 32.34801 -82.94502 31333 ft 385 kts 315°
2026-05-04 07:16 32.36794 -82.96547 30900 ft 375 kts 315°
2026-05-04 07:16 32.38756 -82.98570 30441 ft 373 kts 315°
2026-05-04 07:16 32.40705 -83.00583 29991 ft 371 kts 315°
2026-05-04 07:16 32.42641 -83.02583 29503 ft 370 kts 315°
2026-05-04 07:17 32.44596 -83.04607 28779 ft 374 kts 315°
2026-05-04 07:17 32.46548 -83.06621 28399 ft 371 kts 316°
2026-05-04 07:17 32.48485 -83.08619 28008 ft 367 kts 316°
2026-05-04 07:17 32.50401 -83.10596 27633 ft 363 kts 316°
2026-05-04 07:18 32.52298 -83.12555 27259 ft 360 kts 316°
2026-05-04 07:18 32.54184 -83.14501 26886 ft 357 kts 316°
2026-05-04 07:18 32.56027 -83.16404 26522 ft 354 kts 316°
2026-05-04 07:18 32.57876 -83.18318 26157 ft 351 kts 316°
2026-05-04 07:19 32.59706 -83.20214 25755 ft 349 kts 316°
2026-05-04 07:19 32.61527 -83.22100 25331 ft 346 kts 316°
2026-05-04 07:19 32.63336 -83.23971 24919 ft 344 kts 316°
2026-05-04 07:19 32.65132 -83.25830 24498 ft 342 kts 316°
2026-05-04 07:20 32.66919 -83.27682 24079 ft 340 kts 316°
2026-05-04 07:20 32.68694 -83.29523 23642 ft 338 kts 316°
2026-05-04 07:20 32.70461 -83.31358 23204 ft 337 kts 316°
2026-05-04 07:20 32.72221 -83.33191 22769 ft 335 kts 316°
2026-05-04 07:22 32.84293 -83.45788 19707 ft 325 kts 317°
2026-05-04 07:22 32.85990 -83.47558 19276 ft 323 kts 317°
2026-05-04 07:23 32.87676 -83.49318 18840 ft 322 kts 317°
2026-05-04 07:23 32.89363 -83.51064 18438 ft 320 kts 320°
2026-05-04 07:23 32.91222 -83.52427 18357 ft 308 kts 329°
2026-05-04 07:23 32.93065 -83.53637 18278 ft 296 kts 328°
2026-05-04 07:24 32.94849 -83.54814 18221 ft 295 kts 328°
2026-05-04 07:24 32.96624 -83.55988 18157 ft 296 kts 328°
2026-05-04 07:24 32.98429 -83.57179 18091 ft 297 kts 328°
2026-05-04 07:24 33.00240 -83.58373 18014 ft 297 kts 328°
2026-05-04 07:25 33.02077 -83.59585 17834 ft 311 kts 328°
2026-05-04 07:26 33.15543 -83.68461 16075 ft 313 kts 329°
2026-05-04 07:27 33.17446 -83.69720 15817 ft 312 kts 329°
2026-05-04 07:27 33.19343 -83.70976 15575 ft 310 kts 329°
2026-05-04 07:27 33.21207 -83.72210 15329 ft 310 kts 329°
2026-05-04 07:27 33.23090 -83.73457 15076 ft 308 kts 329°
2026-05-04 07:28 33.24965 -83.74699 14823 ft 307 kts 330°
2026-05-04 07:28 33.26831 -83.75938 14576 ft 306 kts 330°
2026-05-04 07:28 33.28674 -83.77163 14324 ft 300 kts 330°
2026-05-04 07:28 33.30488 -83.78366 13981 ft 297 kts 330°
2026-05-04 07:29 33.32289 -83.79557 13631 ft 294 kts 330°
2026-05-04 07:29 33.34080 -83.80742 13277 ft 292 kts 330°
2026-05-04 07:29 33.35857 -83.81920 12926 ft 290 kts 330°
2026-05-04 07:29 33.37610 -83.83086 12582 ft 287 kts 330°
2026-05-04 07:30 33.39351 -83.84247 12232 ft 285 kts 330°
2026-05-04 07:30 33.41058 -83.85386 11896 ft 283 kts 331°
2026-05-04 07:30 33.42778 -83.86530 11554 ft 281 kts 331°
2026-05-04 07:30 33.44480 -83.87663 11215 ft 279 kts 330°
2026-05-04 07:31 33.46171 -83.88791 10875 ft 277 kts 330°
2026-05-04 07:31 33.47849 -83.89909 10545 ft 275 kts 330°
2026-05-04 07:33 33.59289 -83.97554 8244 ft 264 kts 329°
2026-05-04 07:33 33.60850 -83.98641 7932 ft 261 kts 322°
2026-05-04 07:33 33.62124 -84.00149 7612 ft 256 kts 303°
2026-05-04 07:33 33.62905 -84.02049 7275 ft 254 kts 284°
2026-05-04 07:34 33.63147 -84.04130 6972 ft 250 kts 270°
2026-05-04 07:34 33.63143 -84.06199 6706 ft 247 kts 269°
2026-05-04 07:34 33.63135 -84.08248 6394 ft 245 kts 269°
2026-05-04 07:34 33.63138 -84.10298 6070 ft 245 kts 269°
2026-05-04 07:35 33.63144 -84.12339 5737 ft 244 kts 269°
2026-05-04 07:35 33.63149 -84.14372 5409 ft 242 kts 269°
2026-05-04 07:35 33.63153 -84.16388 5102 ft 241 kts 269°
2026-05-04 07:35 33.63158 -84.18375 4803 ft 235 kts 269°
2026-05-04 07:36 33.63162 -84.20321 4472 ft 231 kts 269°
2026-05-04 07:36 33.63165 -84.22224 4170 ft 225 kts 269°
2026-05-04 07:38 33.63178 -84.33244 2412 ft 146 kts 270°
2026-05-04 07:38 33.63181 -84.34473 2192 ft 145 kts 270°
2026-05-04 07:38 33.63185 -84.35673 1990 ft 146 kts 270°
2026-05-04 07:38 33.63178 -84.36895 1798 ft 146 kts 270°
2026-05-04 07:39 33.63177 -84.38111 1647 ft 146 kts 270°
2026-05-04 07:39 33.63185 -84.39327 1479 ft 146 kts 270°
2026-05-04 07:39 33.63184 -84.40540 1292 ft 145 kts 270°
2026-05-04 07:39 33.63181 -84.41738 1105 ft 145 kts 270°
2026-05-04 07:40 33.63183 -84.42917 1036 ft 128 kts 270°
2026-05-04 07:40 33.63183 -84.43627 1037 ft 41 kts 270°
2026-05-04 07:40 33.63183 -84.43825 1034 ft 24 kts 270°
2026-05-04 07:40 33.63188 -84.44036 1034 ft 25 kts 278°
2026-05-04 07:41 33.63254 -84.44220 1035 ft 22 kts 300°
2026-05-04 07:41 33.63340 -84.44261 1035 ft 14 kts 27°
2026-05-04 07:41 33.63365 -84.44155 1035 ft 14 kts 89°
2026-05-04 07:41 33.63363 -84.44030 1035 ft 15 kts 91°
2026-05-04 07:42 33.63362 -84.43900 1035 ft 16 kts 90°
2026-05-04 07:42 33.63361 -84.43760 1035 ft 17 kts 90°
2026-05-04 07:42 33.63379 -84.43626 1035 ft 16 kts 44°
2026-05-04 07:42 33.63491 -84.43609 1034 ft 17 kts 360°
2026-05-04 07:43 33.63580 -84.43570 1035 ft 9 kts 78°
2026-05-04 07:43 33.63580 -84.43489 1035 ft 14 kts 88°
2026-05-04 07:43 33.63582 -84.43337 1034 ft 22 kts 89°
2026-05-04 07:43 33.63582 -84.43151 1035 ft 22 kts 90°
2026-05-04 07:44 33.63581 -84.42969 1035 ft 22 kts 90°
2026-05-04 07:44 33.63589 -84.42813 1035 ft 15 kts 68°
2026-05-04 07:44 33.63665 -84.42786 1035 ft 11 kts 324°
2026-05-04 07:44 33.63733 -84.42809 1035 ft 10 kts 359°
2026-05-04 07:45 33.63793 -84.42826 1035 ft 8 kts 313°
2026-05-04 07:45 33.63804 -84.42856 1035 ft 0 kts 288°
2026-05-04 07:45 33.63804 -84.42858 1035 ft 2 kts 288°
2026-05-04 07:45 33.63810 -84.42879 1035 ft 1 kts 288°
2026-05-04 07:46 33.63811 -84.42882 1035 ft 0 kts 287°